Weather History for KP59 - April, 2013

Change the Weather History Date:

Wednesday, April 10, 2013

  Actual Average Record
Temperature  
Mean Temperature 30 °F -  
Max Temperature 36 °F 40 °F 61 °F (2003)
Min Temperature 24 °F 28 °F 10 °F (2007)
Degree Days  
Heating Degree Days 35    
Moisture  
Dew Point 25 °F    
Average Humidity 75    
Maximum Humidity 91    
Minimum Humidity 59    
Precipitation  
Precipitation 0.00 in - - ()
Sea Level Pressure  
Sea Level Pressure 30.24 in    
Wind  
Wind Speed 6 mph (East)    
Max Wind Speed 12 mph    
Max Gust Speed 22 mph    
Averages and records for this station are not official NWS values.
T = Trace of Precipitation, MM = Missing Value Source: NWS Daily Summary

Daily Weather History Graph

Daily Weather History Graph

Search for Another Location

Airport or City:

Trip Planner

Search our weather history database for the weather conditions in past years. The results will help you decide how hot, cold, wet, or windy it might be!

Date:

Astronomy

Apr. 10, 2013 Rise Set
Actual Time 7:12 AM EDT 8:34 PM EDT
Civil Twilight 6:40 AM EDT 9:06 PM EDT
Nautical Twilight 6:01 AM EDT 9:44 PM EDT
Astronomical Twilight 5:20 AM EDT 10:26 PM EDT
Moon 7:05 AM EDT (4/10) 9:14 PM EDT (4/10)
Length of Visible Light 14h 25m
Length of Day
13h 22m
New Moon, 0% of the Moon is Illuminated
Apr 10
New Moon
Apr 18
First Quarter
Apr 25
Full
May 2
Last Quarter
May 9
New

Hourly Weather History & Observations

Time (EDT) Temp. Windchill Dew Point Humidity Pressure Visibility Wind Dir Wind Speed Gust Speed Precip Events Conditions
12:51 AM 33.1 °F 26.9 °F 26.1 °F 75% 30.23 in - East 6.9 mph - N/A   Unknown
1:51 AM 33.1 °F 26.1 °F 26.1 °F 75% 30.23 in - ESE 8.1 mph - N/A   Unknown
2:51 AM 33.1 °F 24.4 °F 28.0 °F 82% 30.23 in - East 11.5 mph - N/A   Unknown
3:51 AM 32.0 °F 28.7 °F 26.1 °F 79% 30.25 in - East 3.5 mph - N/A   Unknown
4:51 AM 28.0 °F - 24.1 °F 85% 30.25 in - Calm Calm - N/A   Unknown
5:51 AM 27.0 °F 21.6 °F 24.1 °F 89% 30.25 in - WSW 4.6 mph - N/A   Unknown
6:51 AM 24.1 °F 19.7 °F 21.0 °F 88% 30.21 in - WSW 3.5 mph - N/A   Unknown
7:51 AM 24.1 °F 16.0 °F 21.9 °F 91% 30.26 in - WSW 6.9 mph - N/A   Unknown
8:51 AM 28.9 °F - 25.0 °F 85% 30.27 in - Calm Calm - N/A   Unknown
9:51 AM 34.0 °F - 28.0 °F 79% 30.24 in - Calm Calm - N/A   Unknown
10:51 AM 35.1 °F 30.1 °F 27.0 °F 72% 30.24 in - East 5.8 mph - N/A   Unknown
11:51 AM 36.0 °F 32.1 °F 27.0 °F 70% 30.27 in - ENE 4.6 mph - N/A   Unknown
12:51 PM 36.0 °F 30.3 °F 27.0 °F 70% 30.25 in - East 6.9 mph - N/A   Unknown
1:51 PM 35.1 °F 29.3 °F 27.0 °F 72% 30.25 in - ENE 6.9 mph - N/A   Unknown
2:51 PM 35.1 °F 29.3 °F 27.0 °F 72% 30.27 in - NE 6.9 mph - N/A   Unknown
3:51 PM 35.1 °F 30.1 °F 28.0 °F 76% 30.26 in - ENE 5.8 mph - N/A   Unknown
4:51 PM 35.1 °F 28.6 °F 27.0 °F 72% 30.25 in - ENE 8.1 mph - N/A   Unknown
5:51 PM 34.0 °F 28.0 °F 25.0 °F 70% 30.24 in - ENE 6.9 mph - N/A   Unknown
6:51 PM 34.0 °F 27.2 °F 24.1 °F 67% 30.23 in - ENE 8.1 mph - N/A   Unknown
7:51 PM 34.0 °F 28.0 °F 24.1 °F 67% 30.23 in - NE 6.9 mph - N/A   Unknown
8:51 PM 34.0 °F 26.0 °F 25.0 °F 70% 30.22 in - ENE 10.4 mph - N/A   Unknown
9:51 PM 33.1 °F 25.5 °F 24.1 °F 70% 30.22 in - East 9.2 mph - N/A   Unknown
10:51 PM 33.1 °F 26.1 °F 21.0 °F 61% 30.22 in - East 8.1 mph 20.7 mph N/A   Unknown
11:51 PM 33.1 °F 24.4 °F 19.9 °F 59% 30.22 in - ESE 11.5 mph 21.9 mph N/A   Unknown